Flag for Germany Weather past 2 weeks in Görlitz, Saxony, Germany

Now
81 °F

Scattered clouds.


Feels Like: 80 °F
Forecast: 64 / 91 °F
Wind: 2 mph from Southeast

Location: Goerlitz

Current Time: Aug 3, 2015 at 1:04:43 PM

Latest Report: Aug 3, 2015 at 12:00 PM


Visibility: 25 mi

Pressure: 30.09 "Hg

Humidity: 28%

Dew point: 45 °F

Location of GörlitzLocation

Historic Weather in Görlitz — Graph

°F

Görlitz temperature yesterday

Maximum temperature yesterday: 83 °F (at 4:00 PM)
Minimum temperature yesterday: 64 °F (at 5:00 AM)
Average temperature yesterday: 74 °F

Past Weeks' High & Low Weather Summary

 TemperatureHumidityPressure
High92 °F (Jul 22, 5:00 PM)97% (Jul 23, 3:00 AM)30.12 "Hg (Jul 23, 3:00 AM)
Low47 °F (Aug 1, 3:00 AM)22% (Aug 1, 4:00 PM)29.60 "Hg (Jul 27, 3:00 PM)
Average68 °F59%29.89 "Hg
* Reported Jul 19 11:00 AM — Aug 3 11:00 AM, Görlitz, Weather by CustomWeather, © 2015

Note: Actual official high and low records may vary slightly from our data, if they occured in-between our weather recording intervals... More about our weather records

Advertising

Görlitz weather history for previous 24 hours

 ConditionsComfort  
Time TempWeatherWind HumidityBarometerVisibility
11:00 AM
Mon, Aug 3
80 °FScattered clouds.2 mph35%30.09 "Hg25 mi
10:00 AM76 °FScattered clouds.3 mph38%30.09 "Hg25 mi
9:00 AM74 °FPassing clouds.2 mph49%30.10 "Hg25 mi
8:00 AM70 °FSunny.1 mph58%30.11 "Hg25 mi
7:00 AM64 °FSunny.1 mph66%30.11 "Hg28 mi
6:00 AM61 °FSunny.2 mph71%30.12 "Hg28 mi
5:00 AM62 °FClear.2 mph70%30.11 "Hg22 mi
4:00 AM64 °FClear.2 mph64%30.11 "Hg19 mi
3:00 AM63 °FPassing clouds.3 mph67%30.11 "Hg25 mi
2:00 AM66 °FClear.5 mph60%30.11 "Hg25 mi
1:00 AM65 °FClear.5 mph66%30.12 "Hg22 mi
11:00 PM
Sun, Aug 2
69 °FPassing clouds.5 mph53%30.11 "Hg25 mi
10:00 PM71 °FPassing clouds.5 mph44%30.10 "Hg25 mi
9:00 PM73 °FOvercast.3 mph38%30.09 "Hg34 mi
8:00 PM76 °FOvercast.5 mph34%30.07 "Hg34 mi
7:00 PM80 °FOvercast.6 mph32%30.06 "Hg34 mi
6:00 PM82 °FOvercast.1 mph33%30.05 "Hg28 mi
5:00 PM82 °FOvercast.2 mph31%30.06 "Hg28 mi
4:00 PM83 °FPartly sunny.3 mph29%30.06 "Hg31 mi
3:00 PM82 °FScattered clouds.5 mph30%30.06 "Hg28 mi
2:00 PM82 °FPartly sunny.3 mph30%30.06 "Hg28 mi
1:00 PM81 °FPartly sunny.3 mph33%30.07 "Hg31 mi
Weather by CustomWeather, © 2015

See weather overviewHow to use our weather pages